Weather History for Seychelles Inter-National Airport, Seychelles

Change the Weather History Date:

Tuesday, May 14, 2013

  Actual Average Record
Temperature  
Mean Temperature 82 °F -  
Max Temperature 86 °F 84 °F - ()
Min Temperature 78 °F 77 °F - ()
Cooling Degree Days 17    
Growing Degree Days 32 (Base 50)    
Moisture  
Dew Point 73 °F    
Average Humidity 72    
Maximum Humidity 84    
Minimum Humidity 60    
Precipitation  
Precipitation 0.00 in 0.13 in - ()
Sea Level Pressure  
Sea Level Pressure 29.86 in    
Wind  
Wind Speed 11 mph ()    
Max Wind Speed 16 mph    
Max Gust Speed -    
Visibility 7.7 miles    
Events Rain    
T = Trace of Precipitation, MM = Missing Value Source: Averaged Metar Reports

Daily Weather History Graph

Daily Weather History Graph

Search for Another Location

Airport:

Trip Planner

Search our weather history database for the weather conditions in past years. The results will help you decide how hot, cold, wet, or windy it might be!

Date:

Astronomy

May. 14, 2013 Rise Set
Actual Time 6:17 AM SCT 6:11 PM SCT
Civil Twilight 5:55 AM SCT 6:33 PM SCT
Nautical Twilight 5:29 AM SCT 6:58 PM SCT
Astronomical Twilight 5:04 AM SCT 7:24 PM SCT
Moon 9:37 AM SCT (5/14) 9:46 PM SCT (5/14)
Length of Visible Light 12h 38m
Length of Day
11h 54m
Waxing Crescent, 16% of the Moon is Illuminated
May 14
Waxing Crescent
May 18
First Quarter
May 25
Full
May 31
Last Quarter
Jun 8
New

Hourly Weather History & Observations

Time (SCT) Temp. Heat Index Dew Point Humidity Pressure Visibility Wind Dir Wind Speed Gust Speed Precip Events Conditions
1:00 AM 80.6 °F 85.4 °F 73.4 °F 79% 29.89 in 6.2 mi SSE 15.0 mph - N/A   Mostly Cloudy
2:00 AM 80.6 °F 85.4 °F 73.4 °F 79% 29.86 in 6.2 mi SSE 13.8 mph - N/A   Mostly Cloudy
3:00 AM 80.6 °F 84.6 °F 71.6 °F 74% 29.86 in 6.2 mi SE 11.5 mph - N/A   Mostly Cloudy
4:00 AM 81 °F - 73 °F 70% 29.86 in 19 mi SSE 9.2 mph - -   Partly Cloudy
4:00 AM 80.6 °F 85.4 °F 73.4 °F 79% 29.86 in 6.2 mi SSE 9.2 mph - N/A   Mostly Cloudy
5:00 AM 80.6 °F 85.4 °F 73.4 °F 79% 29.86 in 6.2 mi South 6.9 mph - N/A   Mostly Cloudy
6:00 AM 80.6 °F 85.4 °F 73.4 °F 79% 29.86 in 6.2 mi SSE 13.8 mph - N/A   Scattered Clouds
7:00 AM 80.6 °F 85.4 °F 73.4 °F 79% 29.86 in 6.2 mi SSE 16.1 mph - N/A   Scattered Clouds
8:00 AM 82.4 °F 88.2 °F 73.4 °F 74% 29.89 in 6.2 mi ESE 11.5 mph - N/A   Scattered Clouds
9:00 AM 84.2 °F 89.6 °F 71.6 °F 66% 29.89 in 6.2 mi SE 15.0 mph - N/A   Partly Cloudy
10:00 AM 85 °F - 73 °F 60% 29.90 in 19 mi SSE 15.0 mph - -   Scattered Clouds
10:00 AM 86.0 °F 93.4 °F 73.4 °F 66% 29.89 in 6.2 mi SSE 15.0 mph - N/A   Partly Cloudy
11:00 AM 86.0 °F 93.4 °F 73.4 °F 66% 29.89 in 6.2 mi SE 13.8 mph - N/A   Scattered Clouds
12:00 PM 86.0 °F 93.4 °F 73.4 °F 66% 29.86 in 6.2 mi SE 12.7 mph - N/A   Scattered Clouds
1:00 PM 86.0 °F 93.4 °F 73.4 °F 66% 29.83 in 6.2 mi SE 15.0 mph - N/A   Scattered Clouds
2:00 PM 86.0 °F 93.4 °F 73.4 °F 66% 29.83 in 6.2 mi SE 12.7 mph - N/A   Scattered Clouds
3:00 PM 84.2 °F 90.9 °F 73.4 °F 70% 29.80 in 6.2 mi SE 11.5 mph - N/A   Scattered Clouds
4:00 PM 84 °F - 73 °F 63% 29.82 in 22 mi SE 9.2 mph - -   Partly Cloudy
4:00 PM 84.2 °F 90.9 °F 73.4 °F 70% 29.80 in 6.2 mi SE 9.2 mph - N/A   Scattered Clouds
5:00 PM 84.2 °F 90.9 °F 73.4 °F 70% 29.83 in 6.2 mi SE 13.8 mph - N/A   Scattered Clouds
6:00 PM 82.4 °F 88.2 °F 73.4 °F 74% 29.83 in 6.2 mi SE 16.1 mph - N/A   Mostly Cloudy
7:00 PM 82.4 °F 87.2 °F 71.6 °F 70% 29.86 in 6.2 mi SSE 5.8 mph - N/A   Mostly Cloudy
8:00 PM 80.6 °F 86.2 °F 75.2 °F 84% 29.86 in 6.2 mi SSE 9.2 mph - N/A Rain Light Rain Showers
9:00 PM 80.6 °F 86.2 °F 75.2 °F 84% 29.86 in 6.2 mi SE 13.8 mph - N/A   Scattered Clouds
10:00 PM 82 °F - 72 °F 66% 29.89 in 19 mi SE 11.5 mph - -  
10:00 PM 82.4 °F 87.2 °F 71.6 °F 70% 29.89 in 6.2 mi SE 11.5 mph - N/A   Scattered Clouds
11:00 PM 82.4 °F 87.2 °F 71.6 °F 70% 29.89 in 6.2 mi SE 9.2 mph - N/A   Scattered Clouds